Weather History for KISQ - December, 2013

Change the Weather History Date:

Saturday, December 28, 2013

  Actual Average Record
Temperature  
Mean Temperature 32 °F -  
Max Temperature 35 °F 26 °F 41 °F (1982)
Min Temperature 30 °F 12 °F -10 °F (1961)
Degree Days  
Heating Degree Days 32    
Moisture  
Dew Point 29 °F    
Average Humidity 89    
Maximum Humidity 96    
Minimum Humidity 81    
Precipitation  
Precipitation 0.00 in - - ()
Sea Level Pressure  
Sea Level Pressure 29.85 in    
Wind  
Wind Speed 3 mph (SW)    
Max Wind Speed 12 mph    
Max Gust Speed 17 mph    
Visibility 9 miles    
Events      
Averages and records for this station are not official NWS values.
T = Trace of Precipitation, MM = Missing Value Source: NWS Daily Summary

Daily Weather History Graph

Daily Weather History Graph

Search for Another Location

Airport or City:

Trip Planner

Search our weather history database for the weather conditions in past years. The results will help you decide how hot, cold, wet, or windy it might be!

Date:

Astronomy

Dec. 28, 2013 Rise Set
Actual Time 8:26 AM EST 5:06 PM EST
Civil Twilight 7:51 AM EST 5:41 PM EST
Nautical Twilight 7:13 AM EST 6:19 PM EST
Astronomical Twilight 6:37 AM EST 6:55 PM EST
Moon 3:54 AM EST (12/28) 2:03 PM EST (12/28)
Length of Visible Light 9h 49m
Length of Day
8h 40m
Waning Crescent, 19% of the Moon is Illuminated
Dec 28
Waning Crescent
Jan 1
New
Jan 7
First Quarter
Jan 15
Full
Jan 24
Last Quarter

Hourly Weather History & Observations

Time (EST) Temp. Windchill Dew Point Humidity Pressure Visibility Wind Dir Wind Speed Gust Speed Precip Events Conditions
12:14 AM 30.0 °F 26.5 °F 25.5 °F 83% 29.86 in 10.0 mi WSW 3.5 mph - N/A   Overcast
12:35 AM 30.2 °F 26.7 °F 25.7 °F 83% 29.86 in 10.0 mi WSW 3.5 mph - N/A   Overcast
12:55 AM 30.2 °F - 25.7 °F 83% 29.86 in 10.0 mi Calm Calm - N/A   Overcast
1:14 AM 30.2 °F - 25.7 °F 83% 29.85 in 10.0 mi Calm Calm - N/A   Overcast
1:35 AM 30.0 °F - 26.2 °F 86% 29.85 in 7.0 mi Calm Calm - N/A   Overcast
1:54 AM 30.2 °F - 26.1 °F 85% 29.87 in 10.0 mi Calm Calm - N/A   Overcast
2:14 AM 30.2 °F 26.7 °F 26.1 °F 85% 29.87 in 10.0 mi WSW 3.5 mph - N/A   Overcast
2:35 AM 30.2 °F 26.7 °F 26.2 °F 85% 29.89 in 10.0 mi SW 3.5 mph - N/A   Overcast
2:54 AM 30.2 °F - 26.4 °F 86% 29.90 in 10.0 mi Calm Calm - N/A   Overcast
3:14 AM 30.2 °F - 26.4 °F 86% 29.92 in 10.0 mi Calm Calm - N/A   Overcast
3:35 AM 30.4 °F - 26.4 °F 85% 29.92 in 10.0 mi Calm Calm - N/A   Overcast
3:54 AM 30.6 °F - 26.6 °F 85% 29.93 in 10.0 mi Calm Calm - N/A   Overcast
4:15 AM 30.7 °F - 27.0 °F 86% 29.92 in 10.0 mi Calm Calm - N/A   Overcast
4:35 AM 30.7 °F - 27.1 °F 86% 29.91 in 10.0 mi Calm Calm - N/A   Overcast
4:54 AM 30.7 °F - 27.1 °F 86% 29.89 in 10.0 mi Calm Calm - N/A   Overcast
5:15 AM 30.7 °F - 27.3 °F 87% 29.89 in 10.0 mi Calm Calm - N/A   Overcast
5:34 AM 31.1 °F 27.7 °F 27.5 °F 87% 29.90 in 10.0 mi West 3.5 mph - N/A   Overcast
5:54 AM 30.7 °F 24.9 °F 27.5 °F 88% 29.92 in 10.0 mi West 5.8 mph - N/A   Overcast
6:15 AM 31.1 °F - 27.5 °F 87% 29.92 in 10.0 mi Calm Calm - N/A   Overcast
6:34 AM 31.1 °F 26.4 °F 27.5 °F 87% 29.93 in 10.0 mi WNW 4.6 mph - N/A   Overcast
6:54 AM 31.5 °F - 27.5 °F 85% 29.92 in 10.0 mi Calm Calm - N/A   Overcast
7:15 AM 31.5 °F - 27.5 °F 85% 29.93 in 10.0 mi Calm Calm - N/A   Overcast
7:34 AM 31.1 °F - 27.5 °F 87% 29.93 in 10.0 mi Calm Calm - N/A   Overcast
7:55 AM 31.5 °F 28.1 °F 27.9 °F 87% 29.94 in 10.0 mi West 3.5 mph - N/A   Overcast
8:15 AM 31.3 °F 26.6 °F 27.9 °F 87% 29.94 in 10.0 mi West 4.6 mph - N/A   Overcast
8:34 AM 31.6 °F - 28.0 °F 87% 29.93 in 10.0 mi Calm Calm - N/A   Overcast
8:55 AM 32.0 °F 28.7 °F 28.4 °F 87% 29.93 in 10.0 mi SW 3.5 mph - N/A   Overcast
9:14 AM 32.0 °F - 28.8 °F 88% 29.93 in 10.0 mi Calm Calm - N/A   Overcast
9:34 AM 32.0 °F - 29.1 °F 89% 29.93 in 10.0 mi Calm Calm - N/A   Overcast
9:55 AM 32.2 °F - 29.7 °F 90% 29.92 in 10.0 mi Calm Calm - N/A   Overcast
10:14 AM 32.9 °F 28.5 °F 29.7 °F 88% 29.91 in 10.0 mi SSW 4.6 mph - N/A   Overcast
10:34 AM 33.4 °F 27.3 °F 29.8 °F 87% 29.91 in 10.0 mi SSW 6.9 mph - N/A   Overcast
10:55 AM 34.0 °F 28.0 °F 29.8 °F 85% 29.91 in 10.0 mi SSW 6.9 mph - N/A   Mostly Cloudy
11:14 AM 33.8 °F 28.6 °F 29.7 °F 85% 29.90 in 10.0 mi SSW 5.8 mph - N/A   Overcast
11:35 AM 34.2 °F 28.2 °F 29.8 °F 84% 29.89 in 10.0 mi South 6.9 mph - N/A   Mostly Cloudy
11:55 AM 34.7 °F 27.5 °F 29.3 °F 81% 29.87 in 10.0 mi South 9.2 mph - N/A   Clear
12:14 PM 34.3 °F 27.7 °F 29.7 °F 83% 29.87 in 10.0 mi SSW 8.1 mph - N/A   Clear
12:35 PM 35.1 °F 28.6 °F 30.2 °F 82% 29.86 in 10.0 mi SSW 8.1 mph - N/A   Scattered Clouds
12:54 PM 34.9 °F 27.1 °F 30.6 °F 84% 29.86 in 10.0 mi SSW 10.4 mph - N/A   Clear
1:14 PM 34.2 °F 25.7 °F 30.2 °F 85% 29.85 in 10.0 mi South 11.5 mph 17.3 mph N/A   Scattered Clouds
1:35 PM 34.7 °F 27.5 °F 30.4 °F 84% 29.84 in 10.0 mi SSW 9.2 mph - N/A   Scattered Clouds
1:54 PM 34.7 °F 27.5 °F 30.2 °F 84% 29.83 in 10.0 mi SSW 9.2 mph - N/A   Clear
2:14 PM 34.7 °F 26.4 °F 30.6 °F 85% 29.82 in 10.0 mi South 11.5 mph 17.3 mph N/A   Scattered Clouds
2:35 PM 33.8 °F 25.8 °F 31.1 °F 90% 29.81 in 10.0 mi SSW 10.4 mph 16.1 mph N/A   Overcast
2:54 PM 33.8 °F 27.7 °F 31.1 °F 90% 29.81 in 10.0 mi SSW 6.9 mph - N/A   Overcast
3:15 PM 33.3 °F 27.1 °F 31.1 °F 92% 29.80 in 10.0 mi SSW 6.9 mph - N/A   Overcast
3:35 PM 33.1 °F 27.7 °F 31.1 °F 92% 29.79 in 7.0 mi South 5.8 mph - N/A   Overcast
3:54 PM 33.1 °F 27.7 °F 31.1 °F 92% 29.80 in 7.0 mi SSW 5.8 mph - N/A   Overcast
4:15 PM 32.9 °F 29.8 °F 31.1 °F 93% 29.80 in 7.0 mi SSW 3.5 mph - N/A   Overcast
4:34 PM 33.3 °F 30.2 °F 30.7 °F 90% 29.79 in 10.0 mi SSW 3.5 mph - N/A   Overcast
4:54 PM 33.4 °F 30.4 °F 30.2 °F 88% 29.79 in 10.0 mi SSW 3.5 mph - N/A   Overcast
5:15 PM 32.9 °F 28.5 °F 31.1 °F 93% 29.79 in 7.0 mi South 4.6 mph - N/A   Overcast
5:34 PM 32.9 °F 29.8 °F 31.1 °F 93% 29.80 in 7.0 mi South 3.5 mph - N/A   Overcast
5:55 PM 32.9 °F - 31.1 °F 93% 29.79 in 7.0 mi Calm Calm - N/A   Overcast
6:15 PM 32.9 °F - 31.1 °F 93% 29.79 in 7.0 mi Calm Calm - N/A   Overcast
6:34 PM 33.1 °F 28.7 °F 31.1 °F 92% 29.80 in 7.0 mi WNW 4.6 mph - N/A   Overcast
6:55 PM 32.9 °F 27.5 °F 31.3 °F 94% 29.80 in 7.0 mi West 5.8 mph - N/A   Overcast
7:15 PM 32.5 °F 29.3 °F 31.1 °F 94% 29.80 in 7.0 mi North 3.5 mph - N/A   Overcast
7:34 PM 32.9 °F 27.5 °F 30.9 °F 92% 29.79 in 7.0 mi WNW 5.8 mph - N/A   Overcast
7:55 PM 32.4 °F - 30.7 °F 94% 29.78 in 7.0 mi Calm Calm - N/A   Overcast
8:14 PM 32.2 °F - 30.9 °F 95% 29.77 in 7.0 mi Calm Calm - N/A   Overcast
8:34 PM 32.4 °F - 30.9 °F 94% 29.77 in 7.0 mi Calm Calm - N/A   Overcast
8:55 PM 32.2 °F - 30.7 °F 94% 29.75 in 7.0 mi Calm Calm - N/A   Overcast
9:14 PM 32.2 °F - 30.7 °F 94% 29.75 in 7.0 mi Calm Calm - N/A   Overcast
9:35 PM 32.4 °F 27.9 °F 30.7 °F 94% 29.74 in 7.0 mi NE 4.6 mph - N/A   Overcast
9:55 PM 32.4 °F 29.1 °F 30.7 °F 94% 29.73 in 7.0 mi NE 3.5 mph - N/A   Overcast
10:14 PM 32.4 °F 27.9 °F 30.9 °F 94% 29.73 in 7.0 mi NNE 4.6 mph - N/A   Overcast
10:35 PM 32.5 °F - 31.1 °F 94% 29.73 in 7.0 mi Calm Calm - N/A   Overcast
10:54 PM 32.4 °F 29.1 °F 31.1 °F 95% 29.72 in 7.0 mi ENE 3.5 mph - N/A   Overcast
11:14 PM 32.7 °F 26.4 °F 31.1 °F 94% 29.72 in 7.0 mi North 6.9 mph - N/A   Overcast
11:34 PM 32.9 °F 27.5 °F 31.6 °F 95% 29.72 in 5.0 mi NNW 5.8 mph - N/A   Overcast
11:54 PM 32.5 °F 28.1 °F 31.5 °F 96% 29.72 in 5.0 mi North 4.6 mph - N/A   Overcast